sat.trackr.live / text

‹ back to catalog

STARLINK-32122

NORAD 60285 · 2024-132H

PAYLOAD ACTIVE UNKNOWN

§ Identity

Operator
Country
US
Launch date
2024-07-28
Launch site
AFETR
Launch vehicle
Mass (kg)
RCS (m²)

Purposes: comms

External: N2YO · Heavens-Above · Gunter

§ Orbital elements

Epoch: 2026-09-21T07:31:05.301984Z

Period
94.01 min
Inclination
53.1606°
Eccentricity
0.0001398
Mean motion
15.31706765 rev/d
Perigee alt
469.8 km
Apogee alt
471.7 km
Semi-major
6,848.9 km
B*
9.2397e-6
RAAN
222.9009°
Arg perigee
83.4024°
Mean anomaly
276.7136°
Rev number
12,152

§ Raw data

STARLINK-321221 60285U 24132H   26264.31325581 -.00000078  00000+0  92397-5 0  99912 60285  53.1606 222.9009 0001398  83.4024 276.7136 15.31706765121524

JSON: /api/v1/satellites/60285 · /tle

For live sub-satellite position, see the globe view (requires WebGL).

§ Visibility from observer

Set your observer location to see the next 7 days of passes ≥ 10°. The values pass through the URL so the page stays shareable.

No JS? Fill the form by hand. The geolocation button needs JavaScript.